Annette Island, AK

7:12 AM AKDT on June 23, 2017 (GMT -0800)
Annette Island

Weather History for PANT - May, 2013

Change the Weather History Date:

Thursday, May 9, 2013

  Actual Average Record
Temperature  
Mean Temperature 48 °F 49 °F  
Max Temperature 54 °F 55 °F 75 °F (1968)
Min Temperature 42 °F 43 °F 32 °F (1971)
Degree Days  
Heating Degree Days 17 16  
Month to date heating degree days 127 155  
Since 1 July heating degree days 6115 6100  
Cooling Degree Days 0    
Month to date cooling degree days 0  
Year to date cooling degree days 0  
Moisture  
Dew Point 44 °F    
Average Humidity 0    
Maximum Humidity 0    
Minimum Humidity 0    
Precipitation  
Precipitation 0.00 in 0.19 in 2.04 in (1965)
Month to date precipitation 2.08 1.71  
Year to date precipitation 34.56 34.57  
Snow  
Snow 0.00 in 0.00 in T in (1955)
Month to date snowfall 0.0 0.1  
Since 1 July snowfall 12.8 34.9  
Snow Depth 0.00 in    
Sea Level Pressure  
Sea Level Pressure 30.23 in    
Wind  
Wind Speed 3 mph (SSE)    
Max Wind Speed 9 mph    
Max Gust Speed 13 mph    
Visibility 5 miles    
Events Fog    
T = Trace of Precipitation, MM = Missing Value Source: NWS Daily Summary

Daily Weather History Graph

Daily Weather History Graph

Search for Another Location

Airport or City:

Trip Planner

Search our weather history database for the weather conditions in past years. The results will help you decide how hot, cold, wet, or windy it might be!

Date:

Astronomy

May. 09, 2013 Rise Set
Actual Time 4:48 AM AKDT 8:37 PM AKDT
Civil Twilight 4:03 AM AKDT 9:23 PM AKDT
Nautical Twilight 2:58 AM AKDT 10:29 PM AKDT
Astronomical Twilight 1:15 AM AKDT 12:10 AM AKDT
Moon 4:43 AM AKDT (5/9) 8:39 PM AKDT (5/9)
Length of Visible Light 17h 20m
Length of Day
15h 49m
Waning Crescent, 0% of the Moon is Illuminated
May 9
Waning Crescent
May 9
New
May 17
First Quarter
May 24
Full
May 31
Last Quarter

Hourly Weather History & Observations

Time (AKDT) Temp. Windchill Dew Point Humidity Pressure Visibility Wind Dir Wind Speed Gust Speed Precip Events Conditions
12:53 AM 46.9 °F - 41.0 °F 80% 30.19 in 10.0 mi SE 3.5 mph - N/A   Clear
1:53 AM 45.0 °F - 39.9 °F 82% 30.19 in 10.0 mi Calm Calm - N/A   Clear
2:53 AM 43.0 °F - 41.0 °F 93% 30.20 in 10.0 mi Calm Calm - N/A   Clear
3:53 AM 45.0 °F 43.5 °F 42.1 °F 90% 30.20 in 10.0 mi ESE 3.5 mph - N/A   Clear
4:23 AM 44.6 °F 43.1 °F 42.8 °F 93% 30.20 in 2.0 mi SSE 3.5 mph - N/A   Scattered Clouds
4:25 AM 44.6 °F 43.1 °F 42.8 °F 93% 30.20 in 1.0 mi South 3.5 mph - N/A   Mist
4:32 AM 44.6 °F 43.1 °F 42.8 °F 93% 30.20 in 0.5 mi South 3.5 mph - N/A Fog Fog
4:53 AM 44.1 °F 42.5 °F 44.1 °F 100% 30.22 in 0.2 mi SSW 3.5 mph - N/A Fog Fog
5:53 AM 43.0 °F 41.3 °F 43.0 °F 100% 30.22 in 0.2 mi SE 3.5 mph - N/A Fog Fog
6:53 AM 42.1 °F 40.2 °F 42.1 °F 100% 30.24 in 0.2 mi SSE 3.5 mph - N/A Fog Fog
7:53 AM 43.0 °F - 42.1 °F 97% 30.24 in 0.5 mi Calm Calm - N/A Fog Fog
8:05 AM 42.8 °F - 42.8 °F 100% 30.24 in 0.2 mi Calm Calm - N/A Fog Fog
8:14 AM 42.8 °F - 42.8 °F 100% 30.23 in 0.8 mi Calm Calm - N/A   Mist
9:02 AM 42.8 °F - 42.8 °F 100% 30.24 in 0.8 mi Calm Calm - N/A   Mist
9:15 AM 42.8 °F 40.1 °F 42.8 °F 100% 30.24 in 1.8 mi South 4.6 mph - N/A   Overcast
9:27 AM 44.6 °F - 42.8 °F 93% 30.24 in 3.0 mi Calm Calm - N/A   Overcast
9:53 AM 45.0 °F 42.6 °F 43.0 °F 93% 30.25 in 10.0 mi Variable 4.6 mph - N/A   Overcast
10:36 AM 48.2 °F - 44.6 °F 87% 30.26 in 10.0 mi South 4.6 mph - N/A   Overcast
10:53 AM 46.9 °F - 44.1 °F 90% 30.26 in 10.0 mi SSE 5.8 mph - N/A   Overcast
11:53 AM 48.9 °F - 44.1 °F 83% 30.27 in 10.0 mi Variable 5.8 mph - N/A   Overcast
12:16 PM 51.8 °F - 44.6 °F 76% 30.26 in 10.0 mi Variable 3.5 mph - N/A   Partly Cloudy
12:53 PM 52.0 °F - 45.0 °F 77% 30.26 in 10.0 mi Variable 4.6 mph - N/A   Clear
1:53 PM 53.1 °F - 45.0 °F 74% 30.26 in 10.0 mi South 5.8 mph - N/A   Mostly Cloudy
2:53 PM 52.0 °F - 45.0 °F 77% 30.26 in 10.0 mi Variable 5.8 mph - N/A   Scattered Clouds
3:23 PM 51.8 °F - 44.6 °F 76% 30.25 in 10.0 mi Variable 5.8 mph - N/A   Partly Cloudy
4:30 PM 50.0 °F - 44.6 °F 82% 30.23 in 10.0 mi SSE 6.9 mph - N/A   Mostly Cloudy
4:53 PM 50.0 °F - 45.0 °F 83% 30.23 in 10.0 mi Variable 4.6 mph - N/A   Mostly Cloudy
5:00 PM 50.0 °F - 44.6 °F 82% 30.23 in 10.0 mi South 5.8 mph - N/A   Overcast
5:42 PM 48.2 °F - 46.4 °F 93% 30.22 in 10.0 mi South 6.9 mph - N/A   Overcast
5:53 PM 48.9 °F - 46.0 °F 90% 30.22 in 10.0 mi SSE 4.6 mph - N/A   Overcast
6:53 PM 46.9 °F - 45.0 °F 93% 30.22 in 2.5 mi Variable 5.8 mph - N/A   Overcast
7:53 PM 46.0 °F 44.8 °F 45.0 °F 96% 30.23 in 2.0 mi South 3.5 mph - N/A   Overcast
8:21 PM 46.4 °F 42.9 °F 44.6 °F 93% 30.22 in 3.0 mi SSE 6.9 mph - N/A   Overcast
8:24 PM 46.4 °F 42.9 °F 44.6 °F 93% 30.22 in 1.8 mi SE 6.9 mph - N/A   Overcast
8:48 PM 46.4 °F 45.2 °F 44.6 °F 93% 30.22 in 3.0 mi SSE 3.5 mph - N/A   Overcast
9:53 PM 45.0 °F 41.2 °F 45.0 °F 100% 30.24 in 0.8 mi SE 6.9 mph - N/A   Mist
10:53 PM 45.0 °F - 44.1 °F 97% 30.24 in 0.5 mi Calm Calm - N/A Fog Fog
11:53 PM 46.0 °F 44.8 °F 44.1 °F 93% 30.24 in 0.8 mi SSE 3.5 mph - N/A   Mist